Mercury, NV

3:45 PM PDT on September 27, 2016 (GMT -0700)
Mercury

Weather History for KDRA - October, 2011

Change the Weather History Date:

Sunday, October 16, 2011

  Actual Average Record
Temperature  
Mean Temperature 70 °F 63 °F  
Max Temperature 86 °F 77 °F 91 °F (1991)
Min Temperature 54 °F 49 °F 34 °F (1981)
Degree Days  
Heating Degree Days 0    
Cooling Degree Days 5    
Growing Degree Days 20 (Base 50)    
Moisture  
Dew Point 28 °F    
Average Humidity 22    
Maximum Humidity 38    
Minimum Humidity 12    
Precipitation  
Precipitation 0.00 in 0.01 in 0.11 in (2015)
Month to date precipitation 0.17  
Year to date precipitation 4.74  
Sea Level Pressure  
Sea Level Pressure 29.90 in    
Wind  
Wind Speed 4 mph (West)    
Max Wind Speed 12 mph    
Max Gust Speed 21 mph    
Visibility 10 miles    
Events      
T = Trace of Precipitation, MM = Missing Value Source: NWS Daily Summary

Daily Weather History Graph

Daily Weather History Graph

Search for Another Location

Airport or City:

Trip Planner

Search our weather history database for the weather conditions in past years. The results will help you decide how hot, cold, wet, or windy it might be!

Date:

Astronomy

Oct. 16, 2011 Rise Set
Actual Time 6:52 AM PDT 6:06 PM PDT
Civil Twilight 6:26 AM PDT 6:32 PM PDT
Nautical Twilight 5:56 AM PDT 7:02 PM PDT
Astronomical Twilight 5:26 AM PDT 7:32 PM PDT
Moon 9:03 PM PDT (10/16) 11:06 AM PDT (10/16)
Length of Visible Light 12h 06m
Length of Day
11h 14m
Waning Gibbous, 81% of the Moon is Illuminated
Oct 16
Waning Gibbous
Oct 19
Last Quarter
Oct 26
New
Nov 2
First Quarter
Nov 10
Full

Hourly Weather History & Observations

Time (PDT) Temp. Dew Point Humidity Pressure Visibility Wind Dir Wind Speed Gust Speed Precip Events Conditions
12:53 AM 60.1 °F 26.1 °F 27% 29.86 in 10.0 mi Calm Calm - N/A   Clear
1:53 AM 64.0 °F 25.0 °F 23% 29.86 in 10.0 mi East 9.2 mph - N/A   Clear
2:53 AM 62.1 °F 26.1 °F 25% 29.86 in 10.0 mi Calm Calm - N/A   Clear
3:53 AM 55.9 °F 27.0 °F 33% 29.86 in 10.0 mi Calm Calm - N/A   Clear
4:53 AM 57.9 °F 28.0 °F 32% 29.87 in 10.0 mi Calm Calm - N/A   Clear
5:53 AM 55.9 °F 28.9 °F 36% 29.88 in 10.0 mi NNE 5.8 mph - N/A   Clear
6:53 AM 54.0 °F 28.9 °F 38% 29.91 in 10.0 mi NNE 4.6 mph - N/A   Clear
7:53 AM 61.0 °F 30.9 °F 32% 29.92 in 10.0 mi Calm Calm - N/A   Clear
8:53 AM 66.0 °F 27.0 °F 23% 29.93 in 10.0 mi Calm Calm - N/A   Clear
9:53 AM 75.0 °F 26.1 °F 16% 29.93 in 10.0 mi Calm Calm - N/A   Clear
10:53 AM 79.0 °F 27.0 °F 15% 29.92 in 10.0 mi Variable 3.5 mph - N/A   Clear
11:53 AM 82.0 °F 28.0 °F 14% 29.93 in 10.0 mi SW 10.4 mph 17.3 mph N/A   Clear
12:53 PM 84.9 °F 28.0 °F 13% 29.91 in 10.0 mi SW 10.4 mph 20.7 mph N/A   Clear
1:53 PM 86.0 °F 28.9 °F 13% 29.88 in 10.0 mi WSW 11.5 mph 18.4 mph N/A   Clear
2:53 PM 86.0 °F 27.0 °F 12% 29.88 in 10.0 mi SW 10.4 mph 18.4 mph N/A   Clear
3:53 PM 84.9 °F 26.1 °F 12% 29.87 in 10.0 mi WSW 11.5 mph - N/A   Clear
4:53 PM 84.9 °F 27.0 °F 12% 29.86 in 10.0 mi WSW 9.2 mph - N/A   Clear
5:53 PM 81.0 °F 27.0 °F 14% 29.88 in 10.0 mi West 5.8 mph - N/A   Clear
6:53 PM 75.0 °F 27.0 °F 17% 29.89 in 10.0 mi Calm Calm - N/A   Clear
7:53 PM 72.0 °F 28.0 °F 20% 29.90 in 10.0 mi NNE 4.6 mph - N/A   Clear
8:53 PM 69.1 °F 30.0 °F 23% 29.91 in 10.0 mi NNE 8.1 mph - N/A   Clear
9:53 PM 68.0 °F 32.0 °F 26% 29.92 in 10.0 mi ENE 3.5 mph - N/A   Clear
10:53 PM 62.1 °F 30.9 °F 31% 29.95 in 10.0 mi West 3.5 mph - N/A   Clear
11:53 PM 64.0 °F 30.9 °F 29% 29.95 in 10.0 mi Calm Calm - N/A   Clear